When you browse on this site, cookies collect data to enhance your experience and personalize the content and advertising you see.
Visit our Privacy Policy to learn more. By continuing to use the site, you agree to this use of cookies and data.
  • In Czech Republic
  • List of Countries
  • For 7 days
  • Water Temperature
  • Weather Map
  • Weather Widgets
  • user-avatar
    Login

    Hourly Weather Offenbach am Main

    Today, 24 February, Monday

    Time Temperature Precipitation Wind Pressure Humidity
    00:00 +6°C° 0 mm 4 mps 756 mmHg 69%
    01:00 +6°C° 0 mm 2 mps 757 mmHg 71%
    02:00 +6°C° 0 mm 2 mps 757 mmHg 72%
    03:00 +6°C° 0 mm 2 mps 758 mmHg 73%
    04:00 +6°C° 0 mm 2 mps 758 mmHg 74%
    05:00 +5°C° 0 mm 2 mps 758 mmHg 74%
    06:00 +6°C° 0 mm 1 mps 757 mmHg 75%
    07:00 +5°C° 0 mm 0 mps 758 mmHg 70%
    08:00 +6°C° 0.1 mm 1 mps 757 mmHg 72%
    09:00 +7°C° 0.1 mm 1 mps 757 mmHg 74%
    10:00 +6°C° 0.1 mm 2 mps 756 mmHg 76%
    11:00 +6°C° 0.2 mm 2 mps 755 mmHg 79%
    12:00 +5°C° 0.2 mm 3 mps 754 mmHg 82%
    13:00 +5°C° 0 mm 3 mps 753 mmHg 84%
    14:00 +7°C° 0 mm 3 mps 752 mmHg 85%
    15:00 +8°C° 0 mm 3 mps 751 mmHg 86%
    16:00 +9°C° 0 mm 3 mps 749 mmHg 87%
    17:00 +8°C° 0 mm 4 mps 748 mmHg 85%
    18:00 +9°C° 0 mm 5 mps 748 mmHg 83%
    19:00 +9°C° 0 mm 6 mps 747 mmHg 81%
    20:00 +9°C° 0 mm 6 mps 747 mmHg 79%
    21:00 +9°C° 0 mm 7 mps 746 mmHg 77%
    22:00 +9°C° 0 mm 7 mps 746 mmHg 75%
    23:00 +9°C° 0.1 mm 7 mps 746 mmHg 77%

    Tomorrow, 25 February, Tuesday

    Time Temperature Precipitation Wind Pressure Humidity
    00:00 +9°C° 0.1 mm 6 mps 745 mmHg 78%
    01:00 +9°C° 0.1 mm 6 mps 745 mmHg 80%
    02:00 +9°C° 0.2 mm 6 mps 744 mmHg 81%
    03:00 +9°C° 0.2 mm 6 mps 743 mmHg 82%
    04:00 +9°C° 0.2 mm 5 mps 743 mmHg 83%
    05:00 +9°C° 0.3 mm 5 mps 743 mmHg 83%
    06:00 +9°C° 0.3 mm 5 mps 743 mmHg 83%
    07:00 +8°C° 0.3 mm 5 mps 742 mmHg 84%
    08:00 +8°C° 0.6 mm 5 mps 742 mmHg 83%
    09:00 +8°C° 0.6 mm 5 mps 742 mmHg 83%
    10:00 +8°C° 0.6 mm 5 mps 742 mmHg 82%
    11:00 +8°C° 0.3 mm 5 mps 742 mmHg 75%
    12:00 +8°C° 0.3 mm 5 mps 742 mmHg 69%
    13:00 +8°C° 0.3 mm 5 mps 742 mmHg 62%
    14:00 +7°C° 0 mm 5 mps 741 mmHg 62%
    15:00 +7°C° 0 mm 5 mps 741 mmHg 62%
    16:00 +7°C° 0 mm 5 mps 740 mmHg 62%
    17:00 +7°C° 0.1 mm 5 mps 740 mmHg 66%
    18:00 +6°C° 0.1 mm 5 mps 740 mmHg 69%
    19:00 +5°C° 0.1 mm 4 mps 740 mmHg 73%
    20:00 +5°C° 0.4 mm 5 mps 739 mmHg 75%
    21:00 +5°C° 0.4 mm 5 mps 739 mmHg 78%
    22:00 +5°C° 0.4 mm 5 mps 738 mmHg 80%
    23:00 +3°C° 0.6 mm 5 mps 738 mmHg 81%

    Day after tomorrow, 26 February, Wednesday

    Time Temperature Precipitation Wind Pressure Humidity
    00:00 +3°C° 0.6 mm 5 mps 737 mmHg 83%
    01:00 +3°C° 0.6 mm 5 mps 737 mmHg 85%
    02:00 +2°C° 0.5 mm 5 mps 737 mmHg 80%
    03:00 +2°C° 0.5 mm 5 mps 736 mmHg 75%
    04:00 +2°C° 0.5 mm 6 mps 736 mmHg 71%
    05:00 +1°C° 0.1 mm 6 mps 736 mmHg 71%
    06:00 +1°C° 0.1 mm 6 mps 736 mmHg 72%
    07:00 -1°C° 0.1 mm 6 mps 736 mmHg 73%
    08:00 +1°C° 0.1 mm 6 mps 737 mmHg 71%
    09:00 +1°C° 0.1 mm 6 mps 737 mmHg 70%
    10:00 +1°C° 0.1 mm 6 mps 737 mmHg 69%
    11:00 +1°C° 0.4 mm 6 mps 737 mmHg 74%
    12:00 0°C° 0.4 mm 7 mps 738 mmHg 80%
    13:00 -1°C° 0.4 mm 7 mps 738 mmHg 86%
    14:00 +1°C° 0.5 mm 6 mps 739 mmHg 81%
    15:00 +2°C° 0.5 mm 6 mps 740 mmHg 76%
    16:00 +3°C° 0.5 mm 5 mps 740 mmHg 71%
    17:00 +2°C° 0.1 mm 5 mps 741 mmHg 73%
    18:00 +2°C° 0.1 mm 5 mps 742 mmHg 74%
    19:00 +1°C° 0.1 mm 4 mps 742 mmHg 75%
    20:00 +1°C° 0 mm 4 mps 743 mmHg 76%
    21:00 +1°C° 0 mm 4 mps 744 mmHg 77%
    22:00 +2°C° 0 mm 3 mps 744 mmHg 78%
    23:00 +1°C° 0 mm 3 mps 745 mmHg 79%

    27 February, Thursday

    Time Temperature Precipitation Wind Pressure Humidity
    00:00 +1°C° 0 mm 3 mps 745 mmHg 81%
    01:00 +1°C° 0 mm 3 mps 745 mmHg 82%
    02:00 0°C° 0.1 mm 4 mps 745 mmHg 82%
    03:00 0°C° 0.1 mm 4 mps 745 mmHg 82%
    04:00 0°C° 0.1 mm 5 mps 745 mmHg 82%
    05:00 0°C° 0 mm 4 mps 745 mmHg 81%
    06:00 -1°C° 0 mm 4 mps 745 mmHg 81%
    07:00 -1°C° 0 mm 4 mps 745 mmHg 80%
    08:00 0°C° 0 mm 4 mps 745 mmHg 78%
    09:00 0°C° 0 mm 4 mps 745 mmHg 76%
    10:00 +1°C° 0 mm 4 mps 745 mmHg 75%
    11:00 +1°C° 0.3 mm 4 mps 744 mmHg 80%
    12:00 +1°C° 0.3 mm 4 mps 743 mmHg 85%
    13:00 0°C° 0.3 mm 4 mps 742 mmHg 91%
    14:00 0°C° 0.6 mm 4 mps 740 mmHg 92%
    15:00 +1°C° 0.6 mm 3 mps 739 mmHg 94%
    16:00 +1°C° 0.6 mm 3 mps 737 mmHg 95%
    17:00 +2°C° 1.3 mm 2 mps 737 mmHg 96%
    18:00 +1°C° 1.3 mm 2 mps 737 mmHg 97%
    19:00 +2°C° 1.3 mm 1 mps 737 mmHg 97%
    20:00 +1°C° 0.6 mm 2 mps 738 mmHg 97%
    21:00 +1°C° 0.6 mm 3 mps 740 mmHg 96%
    22:00 0°C° 0.6 mm 5 mps 741 mmHg 96%
    23:00 0°C° 0.1 mm 5 mps 743 mmHg 91%

    28 February, Friday

    Time Temperature Precipitation Wind Pressure Humidity
    00:00 0°C° 0.1 mm 5 mps 745 mmHg 86%
    01:00 0°C° 0.1 mm 5 mps 746 mmHg 81%
    02:00 0°C° 0 mm 4 mps 747 mmHg 82%
    03:00 0°C° 0 mm 4 mps 748 mmHg 83%
    04:00 -1°C° 0 mm 4 mps 749 mmHg 84%
    05:00 0°C° 0 mm 3 mps 750 mmHg 84%
    06:00 -1°C° 0 mm 3 mps 751 mmHg 85%
    07:00 -1°C° 0 mm 3 mps 751 mmHg 85%
    08:00 0°C° 0 mm 3 mps 752 mmHg 83%
    09:00 +1°C° 0 mm 3 mps 752 mmHg 81%
    10:00 +1°C° 0 mm 3 mps 753 mmHg 79%
    11:00 +2°C° 0 mm 3 mps 753 mmHg 76%
    12:00 +3°C° 0 mm 4 mps 753 mmHg 72%
    13:00 +4°C° 0 mm 4 mps 753 mmHg 69%
    14:00 +4°C° 0 mm 3 mps 752 mmHg 70%
    15:00 +4°C° 0 mm 3 mps 752 mmHg 71%
    16:00 +4°C° 0 mm 3 mps 751 mmHg 72%
    17:00 +3°C° 0 mm 3 mps 750 mmHg 75%
    18:00 +4°C° 0 mm 2 mps 750 mmHg 78%
    19:00 +3°C° 0 mm 2 mps 749 mmHg 81%
    20:00 +3°C° 0.1 mm 2 mps 749 mmHg 85%
    21:00 +2°C° 0.1 mm 3 mps 748 mmHg 89%
    22:00 +1°C° 0.1 mm 3 mps 747 mmHg 93%
    23:00 +2°C° 0.3 mm 3 mps 746 mmHg 94%

    29 February, Saturday

    Time Temperature Precipitation Wind Pressure Humidity
    00:00 +2°C° 0.3 mm 3 mps 745 mmHg 94%
    01:00 +2°C° 0.3 mm 3 mps 744 mmHg 95%
    02:00 +3°C° 0.6 mm 3 mps 743 mmHg 95%
    03:00 +3°C° 0.6 mm 3 mps 742 mmHg 95%
    04:00 +4°C° 0.6 mm 3 mps 741 mmHg 95%
    05:00 +5°C° 0.4 mm 4 mps 740 mmHg 94%
    06:00 +5°C° 0.4 mm 4 mps 739 mmHg 93%
    07:00 +6°C° 0.4 mm 5 mps 738 mmHg 91%
    08:00 +7°C° 0 mm 5 mps 738 mmHg 87%
    09:00 +7°C° 0 mm 5 mps 737 mmHg 82%
    10:00 +8°C° 0 mm 5 mps 736 mmHg 77%
    11:00 +8°C° 0.1 mm 6 mps 736 mmHg 75%
    12:00 +8°C° 0.1 mm 7 mps 736 mmHg 73%
    13:00 +7°C° 0.1 mm 8 mps 736 mmHg 71%
    14:00 +8°C° 0.1 mm 7 mps 737 mmHg 66%
    15:00 +8°C° 0.1 mm 7 mps 737 mmHg 62%
    16:00 +6°C° 0.1 mm 7 mps 738 mmHg 57%
    17:00 +5°C° 0 mm 6 mps 738 mmHg 60%
    18:00 +5°C° 0 mm 5 mps 738 mmHg 63%
    19:00 +4°C° 0 mm 4 mps 739 mmHg 66%
    20:00 +4°C° 0 mm 4 mps 739 mmHg 68%
    21:00 +4°C° 0 mm 4 mps 739 mmHg 70%
    22:00 +4°C° 0 mm 4 mps 739 mmHg 73%
    23:00 +2°C° 0.2 mm 5 mps 739 mmHg 75%
    Show more